QPF
0.00 0.00 0.00 0.00 0.00 0.00 0.00 0.00 0.00 0.00 0.00 0.00 0.00 0.00 0.00 0.00 0.00 0.00 0.00 0.00 0.00 0.00 0.00 0.00 0.00 0.00 0.00 0.00 0.00 0.00 0.00 0.00 0.00 0.00 0.00 0.00 0.00 0.00 0.00 0.00 0.00 0.00 0.00 0.00 0.00
0.00 0.00 0.00 0.00 0.00 0.00 0.00 0.00 0.00 0.00 0.00 0.00 0.00 0.00 0.00 0.00 0.00 0.00 0.00 0.00 0.00 0.00 0.00 0.00 0.00 0.00 0.00 0.00 0.00 0.00 0.00 0.00 0.00 0.00 0.00 0.00 0.00 0.00 0.00 0.00 0.00 0.00 0.00 0.00 0.00
0.00 0.00 0.00 0.00 0.00 0.00 0.00 0.00 0.00 0.00 0.00 0.00 0.00 0.00 0.00 0.00 0.00 0.00 0.00 0.00 0.00 0.00 0.00 0.00 0.00 0.00 0.00 0.00 0.00 0.00 0.00 0.00 0.00 0.00 0.00 0.00 0.00 0.00 0.00 0.00 0.00 0.00 0.00 0.00 0.00
0.00 0.00 0.00 0.00 0.00 0.00 0.00 0.00 0.00 0.00 0.00 0.00 0.00 0.00 0.00 0.00 0.00 0.00 0.00 0.00 0.00 0.00 0.00 0.00 0.00 0.00 0.00 0.00 0.00 0.00 0.00 0.00 0.00 0.00 0.00 0.00 0.00 0.00 0.00 0.00 0.00 0.00 0.00 0.00 0.00
0.00 0.00 0.00 0.00 0.00 0.00 0.00 0.00 0.00 0.00 0.00 0.00 0.00 0.00 0.00 0.00 0.00 0.00 0.00 0.00 0.00 0.00 0.00 0.00 0.00 0.00 0.00 0.00 0.00 0.00 0.00 0.00 0.00 0.00 0.00 0.00 0.00 0.00 0.00 0.00 0.00 0.00 0.00 0.00 0.00
0.00 0.00 0.00 0.00 0.00 0.00 0.00 0.00 0.00 0.00 0.00 0.00 0.00 0.00 0.00 0.00 0.00 0.00 0.00 0.00 0.00 0.00 0.00 0.00 0.00 0.00 0.00 0.00 0.00 0.00 0.00 0.00 0.00 0.00 0.00 0.00 0.00 0.00 0.00 0.00 0.00 0.00 0.00 0.00 0.00
0.00 0.00 0.00 0.00 0.00 0.00 0.00 0.00 0.00 0.00 0.00 0.00 0.00 0.00 0.00 0.00 0.00 0.00 0.00 0.00 0.00 0.01 0.01 0.00 0.00 0.00 0.00 0.00 0.00 0.00 0.00 0.00 0.00 0.00 0.00 0.00 0.00 0.00 0.00 0.00 0.00 0.00 0.00 0.00 0.00
0.00 0.00 0.00 0.00 0.00 0.00 0.00 0.00 0.00 0.00 0.00 0.00 0.00 0.00 0.00 0.00 0.00 0.00 0.00 0.01 0.02 0.02 0.01 0.00 0.00 0.00 0.00 0.00 0.00 0.00 0.00 0.00 0.00 0.00 0.00 0.00 0.00 0.00 0.00 0.00 0.00 0.00 0.00 0.00 0.00
0.00 0.00 0.00 0.00 0.00 0.00 0.00 0.00 0.00 0.00 0.00 0.00 0.00 0.00 0.00 0.00 0.00 0.00 0.00 0.01 0.00 0.00 0.00 0.00 0.00 0.00 0.00 0.00 0.00 0.00 0.00 0.00 0.00 0.00 0.00 0.00 0.00 0.00 0.00 0.00 0.00 0.00 0.00 0.00 0.00
0.00 0.00 0.00 0.00 0.00 0.00 0.00 0.00 0.00 0.00 0.00 0.00 0.00 0.00 0.00 0.00 0.00 0.00 0.00 0.00 0.00 0.00 0.01 0.00 0.00 0.00 0.00 0.00 0.00 0.00 0.00 0.00 0.00 0.00 0.00 0.00 0.00 0.00 0.00 0.00 0.00 0.00 0.00 0.00 0.00
0.00 0.00 0.00 0.00 0.00 0.00 0.00 0.00 0.00 0.00 0.00 0.00 0.00 0.00 0.00 0.00 0.00 0.00 0.00 0.00 0.00 0.00 0.00 0.00 0.00 0.00 0.00 0.00 0.00 0.00 0.00 0.00 0.00 0.00 0.00 0.00 0.00 0.00 0.00 0.00 0.00 0.00 0.00 0.00 0.00
0.00 0.00 0.00 0.00 0.00 0.00 0.00 0.00 0.00 0.00 0.00 0.00 0.00 0.00 0.00 0.00 0.00 0.00 0.00 0.00 0.00 0.00 0.00 0.00 0.00 0.00 0.00 0.00 0.00 0.00 0.00 0.00 0.00 0.00 0.00 0.00 0.00 0.00 0.00 0.00 0.00 0.00 0.00 0.00 0.00
0.00 0.00 0.00 0.00 0.00 0.00 0.00 0.00 0.00 0.00 0.00 0.00 0.00 0.00 0.00 0.00 0.00 0.00 0.00 0.00 0.00 0.00 0.00 0.00 0.00 0.00 0.00 0.00 0.00 0.00 0.00 0.00 0.00 0.00 0.00 0.00 0.00 0.00 0.00 0.00 0.00 0.00 0.00 0.00 0.00
0.00 0.00 0.00 0.00 0.00 0.00 0.00 0.00 0.00 0.00 0.00 0.00 0.00 0.00 0.00 0.00 0.00 0.00 0.00 0.01 0.00 0.00 0.00 0.00 0.00 0.00 0.00 0.00 0.00 0.00 0.00 0.00 0.00 0.00 0.00 0.00 0.00 0.00 0.00 0.00 0.00 0.00 0.00 0.00 0.00
0.00 0.00 0.00 0.00 0.00 0.00 0.00 0.00 0.00 0.00 0.00 0.00 0.00 0.00 0.00 0.00 0.00 0.00 0.00 0.00 0.00 0.00 0.00 0.00 0.00 0.00 0.00 0.00 0.00 0.00 0.00 0.00 0.00 0.00 0.00 0.00 0.00 0.00 0.00 0.00 0.00 0.00 0.00 0.00 0.00
0.00 0.00 0.00 0.00 0.00 0.00 0.00 0.00 0.00 0.00 0.00 0.00 0.00 0.00 0.00 0.00 0.00 0.00 0.00 0.00 0.00 0.00 0.00 0.00 0.00 0.00 0.00 0.00 0.00 0.00 0.00 0.00 0.00 0.00 0.00 0.00 0.00 0.00 0.00 0.00 0.00 0.00 0.00 0.00 0.00
0.00 0.00 0.00 0.00 0.00 0.00 0.00 0.00 0.00 0.00 0.00 0.00 0.00 0.00 0.00 0.00 0.00 0.00 0.00 0.00 0.00 0.00 0.00 0.00 0.00 0.00 0.00 0.00 0.00 0.00 0.00 0.00 0.00 0.00 0.00 0.00 0.00 0.00 0.00 0.00 0.00 0.00 0.00 0.00 0.00
0.00 0.00 0.00 0.00 0.00 0.00 0.00 0.00 0.00 0.00 0.00 0.00 0.00 0.00 0.00 0.00 0.00 0.00 0.00 0.01 0.00 0.00 0.00 0.00 0.00 0.00 0.00 0.00 0.00 0.00 0.00 0.00 0.00 0.00 0.00 0.00 0.00 0.00 0.00 0.00 0.00 0.00 0.00 0.00 0.00
0.00 0.00 0.00 0.00 0.00 0.00 0.00 0.00 0.00 0.00 0.00 0.00 0.00 0.00 0.00 0.00 0.00 0.00 0.00 0.01 0.02 0.00 0.00 0.00 0.01 0.00 0.00 0.00 0.00 0.00 0.00 0.00 0.00 0.00 0.00 0.00 0.00 0.00 0.00 0.00 0.00 0.00 0.00 0.00 0.00
0.00 0.00 0.00 0.00 0.00 0.00 0.00 0.00 0.00 0.00 0.00 0.00 0.00 0.00 0.00 0.00 0.00 0.00 0.00 0.00 0.00 0.00 0.00 0.00 0.00 0.00 0.00 0.00 0.00 0.00 0.00 0.00 0.00 0.00 0.00 0.00 0.00 0.00 0.00 0.00 0.00 0.00 0.00 0.00 0.00
0.00 0.00 0.00 0.00 0.00 0.00 0.00 0.00 0.00 0.00 0.00 0.00 0.00 0.01 0.00 0.00 0.00 0.00 0.00 0.00 0.00 0.00 0.00 0.00 0.00 0.01 0.00 0.00 0.00 0.00 0.00 0.00 0.00 0.00 0.00 0.00 0.00 0.00 0.00 0.00 0.00 0.00 0.00 0.00 0.00
0.00 0.00 0.00 0.00 0.00 0.00 0.00 0.00 0.00 0.00 0.00 0.00 0.00 0.01 0.01 0.02 0.00 0.00 0.00 0.00 0.00 0.00 0.00 0.01 0.00 0.02 0.00 0.00 0.00 0.00 0.00 0.00 0.00 0.00 0.00 0.00 0.00 0.00 0.00 0.00 0.00 0.00 0.00 0.00 0.00
0.00 0.00 0.00 0.00 0.00 0.00 0.00 0.00 0.00 0.00 0.00 0.00 0.00 0.00 0.01 0.03 0.01 0.00 0.00 0.00 0.00 0.00 0.00 0.00 0.00 0.00 0.00 0.00 0.00 0.00 0.00 0.00 0.00 0.00 0.00 0.00 0.00 0.00 0.00 0.00 0.00 0.00 0.00 0.00 0.00
0.00 0.00 0.00 0.00 0.00 0.00 0.00 0.00 0.00 0.00 0.00 0.01 0.01 0.01 0.02 0.01 0.01 0.01 0.00 0.00 0.00 0.00 0.01 0.00 0.00 0.00 0.00 0.00 0.00 0.00 0.00 0.00 0.00 0.00 0.00 0.00 0.00 0.00 0.00 0.00 0.00 0.00 0.00 0.00 0.00
0.00 0.00 0.00 0.00 0.00 0.00 0.00 0.00 0.00 0.00 0.00 0.00 0.02 0.00 0.01 0.01 0.01 0.01 0.00 0.00 0.00 0.00 0.03 0.01 0.00 0.00 0.00 0.00 0.00 0.00 0.00 0.00 0.00 0.00 0.00 0.00 0.00 0.00 0.00 0.00 0.00 0.00 0.00 0.00 0.00
0.00 0.00 0.00 0.00 0.00 0.00 0.00 0.00 0.00 0.00 0.00 0.00 0.00 0.00 0.00 0.05 0.03 0.00 0.00 0.00 0.00 0.00 0.01 0.02 0.01 0.01 0.00 0.00 0.00 0.00 0.00 0.00 0.00 0.00 0.00 0.00 0.00 0.00 0.00 0.00 0.00 0.00 0.00 0.00 0.00
0.00 0.00 0.00 0.00 0.00 0.00 0.00 0.00 0.00 0.00 0.02 0.01 0.00 0.00 0.00 0.01 0.00 0.00 0.00 0.00 0.00 0.00 0.00 0.01 0.00 0.00 0.00 0.00 0.00 0.00 0.00 0.00 0.00 0.00 0.00 0.00 0.00 0.00 0.00 0.00 0.00 0.00 0.00 0.00 0.00
MSLP
1016.70 1016.28 1015.84 1015.53 1015.29 1014.91 1014.63 1014.32 1014.00 1013.69 1013.27 1013.06 1012.71 1012.03 1011.78 1011.20 1010.12 1009.41 1007.35 1006.44 1006.40 1006.62 1007.03 1006.89 1006.96 1006.73 1006.49 1006.01 1005.79 1005.29 1003.27 1002.55 1002.64 1002.46 1002.70 1003.27 1003.48 1004.22 1004.57 1004.95 1005.48 1006.09 1006.15 1006.99 1009.20
1016.67 1016.34 1015.93 1015.58 1015.22 1014.85 1014.49 1014.19 1013.90 1013.58 1013.18 1012.87 1012.60 1011.92 1011.57 1011.30 1009.39 1007.17 1006.22 1006.29 1006.73 1006.65 1006.36 1006.15 1006.03 1006.37 1005.87 1005.47 1005.20 1004.79 1002.73 1002.78 1003.22 1003.12 1002.76 1003.01 1003.13 1003.79 1004.29 1004.85 1005.57 1006.55 1007.27 1008.22 1009.31
1016.60 1016.35 1015.94 1015.56 1015.13 1014.75 1014.42 1014.07 1013.85 1013.47 1013.03 1012.68 1012.38 1011.74 1011.35 1011.13 1008.43 1005.65 1006.13 1006.51 1006.72 1006.62 1005.91 1005.88 1005.76 1005.91 1005.75 1005.29 1004.75 1004.18 1003.08 1003.48 1003.34 1003.17 1003.11 1002.65 1003.06 1003.77 1003.91 1004.23 1004.65 1005.99 1007.50 1008.60 1009.31
1016.54 1016.20 1015.86 1015.52 1015.17 1014.68 1014.29 1013.97 1013.74 1013.45 1012.90 1012.54 1012.10 1011.51 1010.95 1009.72 1006.69 1005.94 1006.25 1006.55 1006.73 1006.05 1005.84 1005.67 1005.57 1005.44 1005.41 1004.89 1004.72 1003.86 1003.78 1003.56 1003.42 1003.01 1002.58 1002.47 1003.07 1003.68 1004.25 1004.67 1004.97 1006.05 1007.54 1008.42 1008.95
1016.47 1016.15 1015.77 1015.45 1015.07 1014.68 1014.23 1013.87 1013.61 1013.31 1012.90 1012.40 1011.95 1011.41 1010.05 1007.95 1005.63 1005.93 1006.51 1006.64 1006.34 1006.09 1005.63 1005.39 1005.18 1005.13 1004.74 1004.90 1004.85 1003.90 1003.61 1003.61 1003.31 1002.97 1002.49 1002.88 1003.13 1003.83 1004.83 1005.43 1005.96 1006.82 1007.77 1008.32 1008.70
1016.35 1016.10 1015.64 1015.32 1014.99 1014.51 1014.13 1013.68 1013.45 1013.14 1012.74 1012.21 1011.84 1011.44 1009.51 1006.65 1005.69 1005.73 1005.90 1006.16 1005.81 1005.63 1005.69 1005.47 1005.25 1005.20 1004.85 1004.63 1004.72 1004.27 1003.75 1003.35 1003.11 1002.78 1002.85 1002.98 1003.55 1003.93 1005.40 1005.95 1006.57 1007.31 1007.75 1008.15 1008.48
1016.27 1016.08 1015.53 1015.10 1014.77 1014.35 1013.93 1013.49 1013.13 1012.81 1012.47 1011.93 1011.73 1011.05 1008.46 1005.85 1005.69 1005.56 1005.76 1005.65 1005.83 1005.55 1005.50 1005.26 1005.27 1004.85 1004.80 1004.43 1004.74 1004.18 1003.34 1002.91 1002.75 1002.76 1002.87 1002.84 1003.32 1004.04 1005.35 1005.79 1006.50 1007.17 1007.75 1008.14 1008.49
1016.15 1015.89 1015.44 1014.99 1014.63 1014.25 1013.74 1013.29 1012.72 1012.30 1011.99 1011.56 1011.48 1010.25 1006.65 1005.50 1005.52 1005.65 1005.53 1005.55 1005.89 1005.76 1005.69 1005.45 1005.21 1004.77 1004.62 1004.65 1004.15 1003.26 1003.01 1002.04 1002.61 1002.50 1002.95 1002.93 1002.93 1004.46 1005.33 1005.54 1006.11 1006.86 1007.54 1008.08 1008.33
1015.95 1015.70 1015.31 1014.89 1014.47 1014.03 1013.46 1012.97 1012.31 1011.82 1011.54 1011.19 1010.62 1008.95 1005.39 1005.82 1005.26 1004.77 1005.03 1005.05 1005.55 1005.53 1005.75 1005.59 1005.19 1004.41 1004.43 1003.64 1003.11 1002.63 1001.51 1001.82 1002.07 1002.38 1002.46 1002.34 1002.67 1004.19 1005.09 1005.33 1005.78 1006.45 1007.05 1007.59 1007.97
1015.84 1015.58 1015.21 1014.78 1014.29 1013.89 1013.11 1012.37 1011.71 1011.77 1011.17 1010.31 1009.53 1008.23 1005.23 1004.48 1004.51 1004.78 1004.86 1004.85 1004.91 1005.25 1005.65 1005.31 1005.13 1004.27 1003.42 1003.03 1001.41 1001.51 1001.42 1001.56 1001.39 1002.01 1002.10 1002.00 1002.13 1003.51 1004.44 1004.77 1005.19 1005.73 1006.35 1006.83 1007.11
1015.68 1015.34 1015.04 1014.67 1014.19 1013.93 1012.70 1010.78 1011.09 1010.23 1008.96 1006.75 1006.17 1005.21 1004.67 1004.67 1004.64 1004.37 1004.57 1004.53 1004.54 1004.79 1004.73 1005.36 1004.67 1003.07 1002.39 1002.46 1002.13 1001.60 1001.42 1001.29 1001.30 1001.62 1001.57 1001.32 1001.74 1002.47 1003.57 1004.01 1004.24 1004.73 1005.51 1006.01 1006.26
1015.51 1015.09 1014.86 1014.48 1014.05 1013.79 1013.26 1010.00 1009.39 1009.22 1006.94 1005.73 1005.50 1005.05 1004.82 1004.94 1004.05 1004.06 1004.38 1004.20 1004.06 1004.02 1004.97 1004.82 1003.68 1003.36 1002.89 1002.68 1002.33 1001.82 1001.27 1000.75 1001.24 1001.31 1001.27 1001.11 1001.18 1001.76 1002.59 1003.02 1003.28 1003.75 1004.25 1004.85 1005.35
1015.29 1014.88 1014.66 1014.25 1013.77 1013.05 1011.07 1009.33 1009.29 1008.77 1006.52 1004.77 1004.46 1003.96 1003.79 1004.53 1003.40 1003.17 1003.77 1003.69 1003.85 1004.13 1004.31 1004.18 1003.28 1003.23 1002.90 1002.47 1001.96 1001.02 1000.74 1000.65 1000.34 1001.09 1001.14 1000.93 1000.74 1001.32 1001.95 1002.29 1002.56 1002.94 1003.29 1003.68 1004.03
1015.01 1014.75 1014.51 1014.04 1013.85 1011.16 1009.69 1009.36 1009.25 1008.77 1005.67 1003.81 1003.66 1002.83 1003.50 1003.33 1002.86 1002.93 1003.25 1003.70 1003.81 1003.77 1003.83 1003.54 1002.93 1002.94 1002.59 1002.00 1001.45 1000.15 1000.88 1000.67 1000.46 1000.06 999.16 1000.24 999.73 1000.62 1000.91 1001.37 1001.90 1002.24 1002.52 1002.72 1002.96
1014.87 1014.62 1014.37 1014.37 1012.49 1010.15 1009.52 1009.43 1009.09 1008.09 1004.09 1003.14 1002.93 1003.13 1002.68 1002.56 1002.20 1002.77 1003.06 1003.37 1002.96 1003.13 1003.73 1002.95 1002.52 1002.31 1001.78 1001.03 1001.21 1000.67 1000.50 1000.25 999.88 999.51 999.19 999.45 998.38 999.75 1000.47 1000.66 1000.68 1000.93 1001.41 1001.85 1002.14
1014.69 1014.49 1014.23 1013.15 1012.17 1009.95 1009.78 1009.37 1008.79 1006.24 1003.02 1002.31 1002.45 1002.46 1002.47 1002.08 1002.02 1002.47 1002.74 1003.11 1002.83 1002.82 1002.92 1002.76 1002.32 1002.15 1001.08 1001.16 1001.11 1001.04 1000.39 1000.05 999.48 998.71 997.97 999.09 998.57 998.65 999.53 999.85 1000.11 1000.35 1000.63 1001.11 1001.61
1014.38 1014.25 1014.23 1012.62 1009.92 1010.14 1009.70 1008.55 1006.37 1003.61 1002.73 1002.06 1001.69 1001.77 1001.58 1001.58 1001.69 1001.79 1001.97 1002.26 1001.77 1001.83 1001.53 1001.56 1001.40 1001.05 1001.10 1000.48 1000.70 1000.79 999.57 998.48 998.05 997.79 997.53 999.18 998.77 998.49 999.82 1000.45 1000.51 1000.53 1000.84 1001.07 1001.85
1013.99 1013.93 1013.01 1011.77 1010.82 1010.54 1008.92 1007.13 1004.07 1002.44 1002.15 1002.28 1001.84 1001.64 1001.25 1001.13 1001.51 1001.43 1001.45 1001.41 1001.97 1001.83 1000.94 1000.71 1000.25 1000.12 1000.05 999.86 999.24 999.77 998.47 997.76 997.19 996.64 997.48 999.17 998.41 999.20 1000.53 1000.99 1001.26 1001.64 1002.14 1002.41 1002.25
1013.70 1012.51 1011.47 1010.36 1010.79 1010.57 1007.89 1005.17 1002.73 1002.23 1002.36 1002.01 1001.83 1001.26 1001.22 1001.42 1001.63 1001.27 1001.08 1001.27 1001.93 1001.47 1000.83 1001.14 1001.01 999.84 999.77 999.54 999.41 999.09 999.00 998.07 997.24 997.77 997.45 997.50 998.71 999.81 1000.52 1001.36 1001.76 1002.33 1002.82 1003.20 1003.47
1012.34 1010.79 1009.62 1010.13 1010.37 1009.51 1006.74 1003.66 1002.48 1002.63 1002.47 1002.29 1001.24 1001.31 1000.74 1001.16 1001.63 1001.41 1000.81 1000.51 1001.10 1001.18 1000.93 1000.55 999.99 999.42 999.57 999.80 999.83 999.17 998.51 997.84 997.25 997.03 996.95 997.35 998.07 998.18 1000.34 1001.51 1002.43 1003.01 1003.62 1004.15 1004.54
1011.96 1009.26 1009.58 1009.93 1009.80 1007.76 1004.89 1003.16 1002.71 1002.65 1002.40 1002.11 1002.07 1001.87 1001.53 1001.29 1001.28 1001.24 1000.34 1000.27 1000.14 1001.08 1000.95 1000.82 1000.62 1000.19 1000.05 999.11 998.23 999.05 998.26 997.59 996.97 997.10 996.53 996.93 997.45 999.30 1000.63 1001.78 1002.80 1003.67 1004.35 1004.95 1005.33
1010.50 1008.39 1009.53 1009.71 1007.95 1005.84 1003.96 1002.91 1002.93 1002.18 1002.52 1002.60 1002.72 1002.60 1002.76 1003.21 1001.96 1001.09 1000.10 1000.50 1000.51 1001.23 1001.64 1001.68 1001.31 1001.62 998.99 998.65 998.63 997.62 996.83 996.82 996.31 997.02 997.35 997.85 998.90 1000.57 1001.51 1002.16 1003.15 1004.21 1004.87 1005.33 1005.85
1009.24 1008.31 1009.34 1008.89 1005.83 1004.58 1003.42 1003.14 1002.55 1002.01 1002.13 1002.41 1002.63 1003.03 1003.79 1004.12 1003.22 1001.91 1000.75 1001.04 1001.36 1001.77 1001.94 1001.94 1001.06 999.64 998.62 999.16 998.66 997.63 997.13 996.81 996.42 996.59 997.09 997.40 999.18 1000.89 1002.06 1002.84 1003.79 1004.57 1005.37 1005.89 1006.30
1009.43 1007.27 1007.82 1007.61 1005.46 1003.83 1002.89 1002.49 1002.20 1002.15 1002.06 1002.82 1003.10 1003.44 1004.09 1003.93 1003.58 1002.82 1001.70 1001.40 1001.44 1001.89 1002.42 1002.55 1001.22 1000.17 999.20 997.76 997.51 997.71 997.39 997.39 996.61 996.26 996.52 997.11 999.16 1000.92 1001.99 1003.07 1003.99 1004.67 1005.45 1006.03 1006.43
1009.17 1006.33 1005.53 1005.26 1004.63 1003.61 1002.43 1001.82 1001.62 1001.38 1002.03 1002.59 1003.35 1003.46 1004.09 1004.09 1003.90 1002.84 1001.88 1001.25 1001.77 1002.58 1002.80 1002.71 1001.68 1001.08 999.16 998.78 998.44 997.88 997.39 997.45 997.09 996.69 996.83 997.52 998.17 1000.06 1001.93 1003.00 1003.85 1004.73 1005.53 1006.17 1006.58
1008.71 1006.82 1006.09 1004.54 1003.61 1003.37 1002.47 1001.76 1001.37 1001.19 1001.70 1002.03 1002.59 1002.99 1003.77 1004.79 1005.43 1003.65 1002.03 1001.08 1000.49 1001.51 1002.00 1002.13 1001.58 1001.73 999.86 999.42 998.93 998.25 998.07 997.88 997.77 997.86 997.99 998.37 999.13 1000.39 1002.31 1003.35 1004.24 1004.92 1005.47 1006.09 1006.74
1009.44 1008.22 1006.93 1004.52 1003.58 1002.87 1001.73 1001.43 1001.47 1001.35 1002.25 1002.44 1002.01 1002.11 1003.00 1003.68 1003.68 1002.65 1001.34 1000.11 999.65 999.91 1000.48 1001.30 1001.29 1001.06 1000.49 1000.48 999.77 998.94 998.49 998.25 998.21 998.58 998.41 998.56 999.56 1001.27 1002.67 1003.35 1004.03 1004.78 1005.47 1006.15 1006.71
Thickness
5764 5768 5771 5774 5776 5781 5785 5789 5792 5796 5801 5804 5810 5817 5821 5826 5834 5842 5846 5860 5863 5864 5862 5859 5853 5852 5854 5846 5852 5853 5836 5826 5830 5833 5837 5853 5842 5851 5856 5841 5842 5843 5844 5845 5834
5761 5764 5768 5772 5775 5779 5785 5788 5792 5796 5800 5806 5810 5819 5822 5826 5841 5849 5867 5866 5862 5864 5860 5852 5846 5848 5842 5845 5849 5837 5840 5836 5848 5848 5847 5853 5853 5849 5843 5837 5833 5832 5839 5838 5832
5758 5761 5766 5770 5774 5778 5783 5788 5791 5796 5800 5806 5811 5819 5824 5826 5839 5856 5868 5865 5863 5864 5868 5863 5860 5849 5835 5847 5848 5846 5836 5847 5851 5858 5858 5858 5854 5858 5845 5835 5846 5833 5829 5830 5827
5755 5760 5763 5767 5772 5777 5781 5788 5791 5795 5801 5806 5813 5820 5827 5836 5822 5862 5867 5866 5864 5869 5864 5857 5852 5839 5832 5833 5850 5842 5850 5852 5853 5863 5863 5858 5863 5850 5848 5845 5859 5850 5839 5833 5828
5752 5757 5761 5766 5770 5775 5780 5787 5791 5795 5800 5806 5813 5820 5835 5837 5846 5868 5864 5864 5866 5866 5857 5851 5845 5844 5834 5840 5843 5846 5851 5855 5861 5864 5867 5866 5857 5850 5842 5852 5855 5848 5838 5832 5831
5751 5755 5760 5764 5768 5774 5778 5785 5791 5795 5799 5806 5812 5818 5832 5825 5868 5868 5869 5865 5865 5862 5855 5856 5849 5854 5845 5845 5838 5849 5853 5856 5862 5864 5865 5855 5852 5857 5845 5853 5845 5840 5836 5836 5835
5748 5752 5758 5764 5768 5773 5778 5784 5791 5795 5799 5806 5811 5819 5829 5840 5868 5869 5868 5865 5866 5864 5851 5863 5862 5852 5850 5842 5853 5851 5843 5855 5860 5863 5857 5868 5844 5842 5851 5854 5842 5838 5837 5837 5837
5746 5750 5756 5762 5767 5772 5777 5783 5791 5798 5801 5807 5811 5822 5830 5867 5869 5866 5868 5863 5867 5868 5862 5868 5867 5856 5850 5855 5851 5847 5848 5833 5853 5862 5861 5861 5831 5845 5854 5851 5842 5840 5837 5835 5837
5744 5748 5754 5759 5765 5772 5777 5784 5791 5798 5803 5807 5816 5822 5832 5864 5856 5871 5871 5856 5860 5863 5863 5866 5862 5852 5851 5840 5835 5845 5834 5835 5842 5864 5859 5859 5840 5849 5856 5852 5845 5843 5841 5839 5838
5741 5746 5751 5757 5763 5770 5778 5786 5793 5796 5804 5811 5817 5812 5844 5843 5860 5864 5872 5868 5855 5852 5843 5846 5840 5836 5845 5838 5825 5833 5837 5844 5843 5857 5860 5854 5853 5855 5856 5854 5850 5850 5847 5844 5843
5738 5744 5749 5755 5761 5767 5780 5798 5797 5800 5809 5823 5827 5833 5841 5855 5865 5858 5866 5858 5857 5845 5825 5831 5820 5828 5844 5851 5853 5855 5848 5843 5857 5868 5859 5859 5856 5860 5860 5858 5856 5855 5850 5847 5848
5734 5742 5746 5753 5759 5764 5771 5797 5798 5803 5805 5830 5830 5835 5845 5849 5836 5849 5864 5840 5839 5825 5829 5823 5820 5842 5855 5853 5849 5851 5847 5852 5859 5869 5863 5861 5857 5867 5865 5862 5866 5863 5860 5857 5855
5731 5738 5744 5751 5758 5768 5785 5796 5803 5808 5804 5822 5832 5834 5841 5842 5837 5843 5855 5848 5832 5822 5824 5815 5837 5849 5847 5845 5843 5858 5851 5852 5857 5861 5866 5859 5852 5857 5868 5873 5875 5875 5874 5871 5867
5727 5733 5740 5749 5758 5780 5786 5796 5800 5805 5795 5812 5819 5837 5841 5845 5831 5861 5862 5845 5831 5821 5827 5829 5852 5842 5842 5841 5855 5854 5866 5863 5858 5856 5853 5868 5830 5852 5867 5866 5870 5872 5874 5876 5877
5722 5729 5736 5741 5763 5778 5786 5792 5798 5800 5767 5815 5820 5852 5848 5835 5844 5840 5864 5848 5828 5828 5827 5824 5838 5839 5839 5853 5861 5851 5873 5866 5868 5863 5865 5859 5865 5858 5869 5858 5870 5880 5882 5884 5886
5717 5724 5731 5745 5758 5778 5782 5788 5788 5776 5762 5805 5823 5820 5821 5835 5837 5844 5843 5854 5854 5835 5838 5834 5861 5852 5859 5865 5866 5869 5865 5866 5873 5873 5853 5856 5862 5861 5862 5870 5878 5889 5891 5891 5891
5714 5720 5727 5743 5770 5772 5778 5781 5769 5768 5810 5801 5809 5823 5825 5821 5827 5834 5830 5826 5825 5812 5818 5837 5843 5864 5868 5857 5867 5860 5860 5844 5840 5844 5846 5862 5857 5865 5877 5879 5882 5885 5889 5895 5891
5711 5717 5731 5745 5757 5764 5776 5770 5758 5794 5794 5812 5814 5818 5812 5826 5823 5829 5826 5820 5836 5832 5827 5816 5819 5855 5874 5865 5863 5857 5872 5845 5821 5843 5849 5859 5847 5860 5877 5882 5883 5883 5881 5882 5886
5707 5723 5735 5751 5753 5759 5768 5757 5777 5789 5799 5800 5808 5804 5806 5817 5817 5823 5825 5819 5824 5840 5819 5801 5786 5867 5871 5879 5876 5862 5846 5884 5865 5864 5852 5870 5868 5876 5880 5872 5875 5872 5872 5870 5873
5716 5730 5744 5746 5750 5758 5761 5763 5784 5798 5802 5804 5795 5808 5802 5810 5805 5811 5820 5839 5827 5845 5854 5837 5815 5861 5864 5873 5871 5866 5883 5856 5867 5826 5824 5854 5855 5865 5862 5860 5863 5861 5860 5861 5864
5713 5732 5736 5741 5749 5754 5756 5773 5785 5800 5805 5798 5794 5798 5806 5809 5815 5808 5823 5839 5849 5837 5851 5844 5833 5834 5852 5853 5859 5853 5856 5869 5876 5865 5846 5840 5860 5882 5867 5864 5856 5855 5855 5854 5854
5721 5726 5730 5736 5739 5759 5762 5779 5783 5796 5803 5799 5801 5800 5795 5792 5804 5813 5823 5827 5851 5838 5816 5837 5829 5770 5843 5871 5878 5881 5880 5879 5858 5840 5858 5855 5852 5874 5866 5867 5861 5852 5851 5852 5850
5722 5725 5726 5732 5737 5749 5771 5772 5786 5791 5795 5796 5794 5800 5795 5780 5784 5808 5825 5838 5838 5826 5817 5828 5824 5816 5835 5845 5863 5863 5875 5882 5887 5881 5850 5848 5843 5870 5862 5857 5853 5845 5842 5842 5841
5715 5716 5720 5729 5751 5757 5761 5765 5772 5796 5796 5794 5791 5797 5784 5784 5795 5791 5807 5824 5832 5829 5815 5822 5823 5822 5810 5844 5862 5845 5859 5869 5877 5860 5863 5865 5845 5847 5849 5844 5843 5842 5840 5836 5834
5713 5726 5736 5724 5739 5754 5770 5774 5772 5779 5794 5796 5781 5786 5777 5770 5770 5782 5805 5817 5820 5808 5813 5815 5799 5808 5841 5848 5851 5855 5860 5861 5860 5873 5857 5861 5863 5855 5848 5843 5842 5840 5834 5828 5824
5707 5717 5729 5740 5753 5750 5749 5767 5773 5785 5787 5785 5780 5784 5779 5747 5750 5772 5797 5809 5814 5820 5813 5818 5804 5804 5827 5842 5847 5843 5854 5859 5861 5859 5859 5860 5850 5866 5852 5846 5835 5831 5828 5821 5816
5705 5714 5719 5728 5745 5749 5764 5773 5774 5788 5787 5792 5795 5792 5779 5769 5782 5799 5819 5829 5838 5826 5819 5811 5809 5809 5798 5819 5826 5825 5848 5854 5856 5857 5859 5846 5855 5851 5835 5834 5832 5827 5823 5816 5812